Flag for Canada Weather past 2 weeks in Thunder Bay, Ontario, Canada

Now
61 °F

Broken clouds.


Feels Like: 61 °F
Forecast: 51 / 66 °F
Wind: 3 mph from North

Location: Thunder Bay

Current Time: Aug 3, 2015 at 10:11:21 PM

Latest Report: Aug 3, 2015 at 9:00 PM


Visibility: 20 mi

Pressure: 29.79 "Hg

Humidity: 94%

Dew point: 59 °F

Location of Thunder BayLocation

Historic Weather in Thunder Bay — Graph

°F

Thunder Bay temperature yesterday

Maximum temperature yesterday: 77 °F (at 4:00 PM)
Minimum temperature yesterday: 59 °F (at 6:00 AM)
Average temperature yesterday: 66 °F

Past Weeks' High & Low Weather Summary

 TemperatureHumidityPressure
High90 °F (Jul 27, 5:00 PM)100% (Jul 20, 3:00 AM)29.98 "Hg (Jul 20, 3:00 AM)
Low48 °F (Jul 22, 5:00 AM)30% (Aug 2, 5:00 PM)29.51 "Hg (Jul 20, 12:00 AM)
Average67 °F73%29.79 "Hg
* Reported Jul 19 8:00 PM — Aug 3 8:00 PM, Thunder Bay, Weather by CustomWeather, © 2015

Note: Actual official high and low records may vary slightly from our data, if they occured in-between our weather recording intervals... More about our weather records

Advertising

Thunder Bay weather history for previous 24 hours

 ConditionsComfort  
Time TempWeatherWind HumidityBarometerVisibility
8:00 PM
Mon, Aug 3
63 °FScattered showers. Broken clouds.7 mph88%29.78 "Hg20 mi
7:00 PM66 °FSprinkles. Partly sunny.9 mph73%29.76 "Hg20 mi
6:00 PM66 °FScattered showers. Broken clouds.13 mph73%29.76 "Hg20 mi
5:00 PM68 °FScattered showers. Broken clouds.15 mph60%29.74 "Hg20 mi
4:00 PM66 °FBroken clouds.15 mph64%29.74 "Hg20 mi
3:00 PM66 °FBroken clouds.12 mph64%29.74 "Hg20 mi
2:52 PM64 °FBroken clouds.12 mph68%29.74 "Hg20 mi
2:00 PM66 °FScattered showers. More clouds than sun.12 mph64%29.73 "Hg20 mi
1:00 PM66 °FPartly sunny.16 mph64%29.73 "Hg20 mi
12:00 PM64 °FSprinkles. Broken clouds.10 mph64%29.72 "Hg20 mi
11:49 AM64 °FSprinkles. Broken clouds.20 mph64%29.72 "Hg20 mi
11:00 AM63 °FBroken clouds.12 mph68%29.71 "Hg20 mi
10:00 AM61 °FBroken clouds.12 mph72%29.71 "Hg20 mi
9:00 AM61 °FBroken clouds.12 mph77%29.70 "Hg20 mi
8:00 AM59 °FBroken clouds.12 mph77%29.70 "Hg20 mi
7:00 AM57 °FMostly cloudy.6 mph82%29.69 "Hg20 mi
6:00 AM57 °FPassing clouds.6 mph82%29.68 "Hg20 mi
5:00 AM57 °FPassing clouds.6 mph82%29.67 "Hg15 mi
4:00 AM57 °FPassing clouds.8 mph82%29.67 "Hg15 mi
3:00 AM59 °FPartly cloudy.9 mph72%29.67 "Hg15 mi
2:00 AM59 °FPartly cloudy.7 mph82%29.67 "Hg15 mi
1:00 AM57 °FPassing clouds.7 mph88%29.66 "Hg15 mi
12:00 AM61 °FOvercast.7 mph77%29.67 "Hg15 mi
11:00 PM
Sun, Aug 2
63 °FMostly cloudy.14 mph73%29.67 "Hg15 mi
10:00 PM64 °FPartly sunny.7 mph60%29.64 "Hg20 mi
Weather by CustomWeather, © 2015

See weather overviewHow to use our weather pages